Location: Roland
(31.1349°N, 85.4372°W)
Time: 04:51:59
(UTC+00:00)

Courier 1B - Pass Details

Date: 21 April 2021
Orbit: 962 x 1209 km, 28.3° (Epoch: 07 May)

Event Time Altitude Azimuth Distance (km) Brightness Sun altitude
Rises 17:56:24 0° 249° (WSW) 3,766 10.7 70.6°
Reaches altitude 10° 17:59:12 10° 245° (WSW) 2,782 10.2 70.5°
Maximum altitude 18:05:45 57° 168° (SSE) 1,134 9.7 70.1°
Drops below altitude 10° 18:12:05 10° 91° (E) 2,690 9.9 69.6°
Sets 18:14:44 0° 87° (E) 3,633 10.4 69.4°
